This is the latest recevied weather packets stored in our database for station/object K7GFH-13. If no packets are shown the sender has not sent any weather packets the latest 10 day(s).
| Time | Temp. | Humidity | Pressure | Rain* | Wind** | Luminosity | Snow |
|---|---|---|---|---|---|---|---|
| 1777482430 | 11.67° C | 66% | 1025.8 hPa | 0 mm | - | 491 W/m² | - |
| 1777481528 | 10.56° C | 70% | 1025.8 hPa | 0 mm | - | 458 W/m² | - |
| 1777480624 | 10.56° C | 68% | 1025.9 hPa | 0 mm | - | 422 W/m² | - |
| 1777479720 | 10.56° C | 67% | 1026 hPa | 0 mm | - | 385 W/m² | - |
| 1777478817 | 10.56° C | 69% | 1026.2 hPa | 0 mm | - | 96 W/m² | - |
| 1777477912 | 9.44° C | 72% | 1026.3 hPa | 0 mm | - | 304 W/m² | - |
| 1777477007 | 9.44° C | 73% | 1026.4 hPa | 0 mm | - | 254 W/m² | - |
| 1777476103 | 8.89° C | 76% | 1026.4 hPa | 0 mm | - | 223 W/m² | - |
| 1777475203 | 8.33° C | 77% | 1026.5 hPa | 0 mm | - | 184 W/m² | - |
| 1777474303 | 7.78° C | 78% | 1026.4 hPa | 0 mm | - | 146 W/m² | - |
| 1777473399 | 7.22° C | 80% | 1026.6 hPa | 0 mm | - | 77 W/m² | - |
| 1777472495 | 6.67° C | 83% | 1026.4 hPa | 0 mm | - | 56 W/m² | - |
| 1777471590 | 5.56° C | 87% | 1026.3 hPa | 0 mm | - | 46 W/m² | - |
| 1777470686 | 5° C | 91% | 1026.3 hPa | 0 mm | - | 34 W/m² | - |
| 1777469781 | 4.44° C | 94% | 1026.2 hPa | 0 mm | - | 23 W/m² | - |
| 1777468876 | 3.89° C | 94% | 1026.2 hPa | 0 mm | - | 13 W/m² | - |
| 1777467972 | 3.89° C | 97% | 1026.2 hPa | 0 mm | - | 5 W/m² | - |
| 1777467072 | 3.89° C | 96% | 1026.1 hPa | 0 mm | - | 1 W/m² | - |
| 1777466169 | 3.89° C | 96% | 1026 hPa | 0 mm | - | 0 W/m² | - |
| 1777465268 | 3.33° C | 95% | 1025.9 hPa | 0 mm | - | 0 W/m² | - |
| 1777464366 | 3.89° C | 95% | 1026.1 hPa | 0 mm | - | 0 W/m² | - |
| 1777463464 | 4.44° C | 95% | 1026 hPa | 0 mm | - | 0 W/m² | - |
| 1777462563 | 4.44° C | 94% | 1026 hPa | 0 mm | - | 0 W/m² | - |
| 1777461658 | 5° C | 93% | 1026 hPa | 0 mm | - | 0 W/m² | - |
| 1777460756 | 5.56° C | 93% | 1026 hPa | 0 mm | - | 0 W/m² | - |
* Rain latest hour (hover to see other rain measurements)
** Current wind speed in m/s (hover to see current wind gust speed)